Find Orbiter SN3

NORAD ID: 56960 Int'l Des: 2023-084 Owner: LAUN Country: US operational
LEOCIRCULARRETROGRADESSO

Live-Position

3D-Globus wird geladen...

Über Orbiter SN3

Beschreibung wird geladen...

Nächste Überflüge

Passes for default location (London). Set your location on the main map for personalized predictions.

Höhenverlauf

Loading altitude history...

Zweizeiliger Elementsatz

1 56960U 23084AE 26122.21376916 .00009928 00000-0 30444-3 0 9997
2 56960 97.6206 261.5358 0009230 130.5985 229.6062 15.33943457160449
Epoch: 2. Mai 2026 • Age: 5 hours

Aktueller Status

Höhe 469.7 km
Geschwindigkeit 7.64 km/s
Subsatellitenpunkt 39.14°N, 114.78°W
Startdatum 12. Juni 2023
Alter 2.8 years
Typ other

Technische Details

Klassifizierung Payload
Masse 200.00 kg
Trockenmasse 150.00 kg
Gesamtmasse 223.00 kg
Länge 0.30 m
Durchmesser 1.00 m
Spannweite 1.00 m
Form Oct cyl
Hersteller LAUN
Bus-Typ LaOrb1
Phasenstatus In Orbit
Besitzer/Staat LAUN/US

Most Searched